Weather History for Kolkata, India

Change the Weather History Date:

Thursday, March 7, 2013

  Actual Average Record
Temperature  
Mean Temperature 80 °F -  
Max Temperature 95 °F 87 °F 95 °F (2012)
Min Temperature 66 °F 67 °F 60 °F (2003)
Cooling Degree Days 16    
Growing Degree Days 30 (Base 50)    
Moisture  
Dew Point 58 °F    
Average Humidity 47    
Maximum Humidity 83    
Minimum Humidity 19    
Precipitation  
Precipitation 0.00 in - - ()
Sea Level Pressure  
Sea Level Pressure 29.92 in    
Wind  
Wind Speed 2 mph ()    
Max Wind Speed 8 mph    
Max Gust Speed -    
Visibility 1.5 miles    
Events      
Averages and records for this station are not official NWS values.
T = Trace of Precipitation, MM = Missing Value Source: Averaged Metar Reports

Daily Weather History Graph

Daily Weather History Graph

Search for Another Location

Airport:

Trip Planner

Search our weather history database for the weather conditions in past years. The results will help you decide how hot, cold, wet, or windy it might be!

Date:

Astronomy

Mar. 07, 2013 Rise Set
Actual Time 5:52 AM IST 5:42 PM IST
Civil Twilight 5:30 AM IST 6:04 PM IST
Nautical Twilight 5:04 AM IST 6:30 PM IST
Astronomical Twilight 4:38 AM IST 6:56 PM IST
Moon 2:01 AM IST (3/7) 1:22 PM IST (3/7)
Length of Visible Light 12h 34m
Length of Day
11h 49m
Waning Crescent, 24% of the Moon is Illuminated
Mar 7
Waning Crescent
Mar 12
New
Mar 19
First Quarter
Mar 27
Full
Apr 3
Last Quarter

Hourly Weather History & Observations

Time (IST) Temp. Heat Index Dew Point Humidity Pressure Visibility Wind Dir Wind Speed Gust Speed Precip Events Conditions
12:20 AM 75.2 °F - 60.8 °F 61% 29.92 in 1.6 mi Calm Calm - N/A   Haze
12:50 AM 73.4 °F - 60.8 °F 65% 29.92 in 1.6 mi Calm Calm - N/A   Haze
1:20 AM 73.4 °F - 60.8 °F 65% 29.92 in 1.6 mi Calm Calm - N/A   Haze
1:50 AM 75.2 °F - 62.6 °F 65% 29.89 in 1.6 mi WSW 4.6 mph - N/A   Haze
2:20 AM 75.2 °F - 64.4 °F 69% 29.89 in 1.6 mi WSW 4.6 mph - N/A   Haze
2:30 AM 74 °F - 64 °F 65% 29.91 in 1 mi West 2.3 mph - -   Haze
2:50 AM 75.2 °F - 64.4 °F 69% 29.89 in 1.6 mi West 4.6 mph - N/A   Haze
3:20 AM 75.2 °F - 64.4 °F 69% 29.89 in 1.6 mi West 5.8 mph - N/A   Haze
3:50 AM 75.2 °F - 62.6 °F 65% 29.89 in 1.6 mi North 3.5 mph - N/A   Haze
4:20 AM 71.6 °F - 60.8 °F 69% 29.89 in 1.4 mi Calm Calm - N/A   Haze
4:50 AM 68.0 °F - 60.8 °F 78% 29.92 in 1.2 mi Calm Calm - N/A   Mist
5:20 AM 68.0 °F - 60.8 °F 78% 29.92 in 1.2 mi Calm Calm - N/A   Mist
5:30 AM 69 °F - 64 °F 77% 29.94 in 1 mi Calm Calm - -   Haze
5:50 AM 66.2 °F - 60.8 °F 83% 29.95 in 1.1 mi Calm Calm - N/A   Mist
6:20 AM 66.2 °F - 60.8 °F 83% 29.95 in 1.1 mi Calm Calm - N/A   Mist
6:50 AM 68.0 °F - 60.8 °F 78% 29.95 in 0.9 mi Calm Calm - N/A   Mist
7:20 AM 69.8 °F - 62.6 °F 78% 29.98 in 0.9 mi Calm Calm - N/A   Mist
7:50 AM 71.6 °F - 62.6 °F 73% 29.98 in 0.9 mi South 4.6 mph - N/A   Mist
8:20 AM 73.4 °F - 62.6 °F 69% 29.98 in 1.2 mi SSE 3.5 mph - N/A   Haze
8:30 AM 82 °F - 65 °F 47% 30.01 in 1 mi Calm Calm - -   Haze
9:20 AM 80.6 °F 82.3 °F 64.4 °F 58% 30.01 in 1.6 mi SSW 3.5 mph - N/A   Haze
10:20 AM 84.2 °F 84.4 °F 60.8 °F 45% 30.01 in 1.7 mi West 6.9 mph - N/A   Haze
11:20 AM 89.6 °F 88.9 °F 59.0 °F 36% 29.95 in 2.2 mi West 8.1 mph - N/A   Haze
11:30 AM 93 °F - 56 °F 19% 29.98 in 1 mi SW 2.3 mph - -   Haze
11:50 AM 93.2 °F 91.3 °F 55.4 °F 28% 29.95 in 2.5 mi SW 5.8 mph - N/A   Haze
12:20 PM 93.2 °F 91.3 °F 55.4 °F 28% 29.95 in 2.5 mi SW 5.8 mph - N/A   Haze
12:50 PM 95.0 °F 92.7 °F 53.6 °F 25% 29.92 in 2.5 mi WSW 5.8 mph - N/A   Haze
1:20 PM 95.0 °F 92.7 °F 53.6 °F 25% 29.92 in 2.5 mi WSW 5.8 mph - N/A   Haze
1:50 PM 95.0 °F - 51.8 °F 23% 29.89 in - West 4.6 mph - N/A   Haze
2:20 PM 95.0 °F - 51.8 °F 23% 29.89 in - SSW 5.8 mph - N/A   Haze
2:30 PM 94 °F - 58 °F 21% 29.88 in 1 mi South 1.2 mph - -   Haze
2:50 PM 95.0 °F - 51.8 °F 23% 29.86 in - West 4.6 mph - N/A   Haze
3:20 PM 95.0 °F - 50.0 °F 22% 29.83 in - SW 4.6 mph - N/A   Haze
3:50 PM 93.2 °F - 50.0 °F 23% 29.83 in - WSW 4.6 mph - N/A   Haze
4:20 PM 93.2 °F - 50.0 °F 23% 29.83 in - West 4.6 mph - N/A   Haze
4:50 PM 93.2 °F - 50.0 °F 23% 29.83 in - West 4.6 mph - N/A   Haze
5:20 PM 91.4 °F - 50.0 °F 24% 29.86 in 2.2 mi West 4.6 mph - N/A   Haze
5:30 PM 89 °F - 58 °F 25% 29.88 in 1 mi West 1.2 mph - -   Haze
5:50 PM 89.6 °F - 50.0 °F 26% 29.86 in - SW 4.6 mph - N/A   Haze
6:20 PM 89.6 °F - 51.8 °F 27% 29.86 in - SSW 4.6 mph - N/A   Haze
6:50 PM 87.8 °F - 51.8 °F 29% 29.89 in - SW 4.6 mph - N/A   Haze
7:20 PM 86.0 °F - 51.8 °F 31% 29.89 in - SSW 3.5 mph - N/A   Haze
7:50 PM 82.4 °F 81.4 °F 53.6 °F 37% 29.92 in - West 5.8 mph - N/A   Haze
8:20 PM 82.4 °F 81.4 °F 53.6 °F 37% 29.92 in - West 5.8 mph - N/A   Haze
8:30 PM 81 °F - 57 °F 34% 29.95 in 1 mi SW 2.3 mph - -   Haze
8:50 PM 80.6 °F 80.5 °F 55.4 °F 42% 29.95 in 1.9 mi West 4.6 mph - N/A   Haze
9:20 PM 80.6 °F 80.5 °F 55.4 °F 42% 29.95 in 1.9 mi West 4.6 mph - N/A   Haze
9:50 PM 80.6 °F 80.5 °F 55.4 °F 42% 29.95 in 1.9 mi Calm Calm - N/A   Haze
10:20 PM 78.8 °F - 55.4 °F 44% 29.95 in 1.9 mi Calm Calm - N/A   Haze
10:50 PM 77.0 °F - 57.2 °F 50% 29.95 in 1.9 mi Calm Calm - N/A   Haze
11:20 PM 77.0 °F - 57.2 °F 50% 29.95 in 1.9 mi Calm Calm - N/A   Haze
11:30 PM 77 °F - 62 °F 50% 29.96 in 1 mi Calm Calm - -   Haze
11:50 PM 77.0 °F - 59.0 °F 54% 29.95 in 1.9 mi Calm Calm - N/A   Haze